Flag for China Weather past 2 weeks in Shantou, Guangdong, China

Now
55 °F

Drizzle. Fog.


Feels Like: 55 °F
Forecast: 58 / 69 °F
Wind: 1 mph from East

Location: Shantou Airport

Current Time: Mar 6, 2015 at 3:02:07 AM

Latest Report: Mar 6, 2015 at 2:00 AM


Visibility: 1 mi

Pressure: 30.07 "Hg

Humidity: 100%

Dew point: 55 °F

Location of ShantouLocation

Historic Weather in Shantou — Graph

°F

Shantou temperature yesterday

Maximum temperature yesterday: 57 °F (at 12:00 PM)
Minimum temperature yesterday: 54 °F (at 6:00 AM)
Average temperature yesterday: 56 °F

Past Weeks' High & Low Weather Summary

 TemperatureHumidityPressure
High86 °F (Feb 26, 3:00 PM)100% (Feb 21, 11:00 AM)30.24 "Hg (Feb 21, 11:00 AM)
Low54 °F (Mar 5, 6:00 AM)44% (Mar 1, 2:00 PM)29.83 "Hg (Mar 3, 3:00 PM)
Average64 °F82%30.04 "Hg
* Reported Feb 19 2:00 AM — Mar 6 2:00 AM, Shantou, Weather by CustomWeather, © 2015

Note: Actual official high and low records may vary slightly from our data, if they occured in-between our weather recording intervals... More about our weather records

Advertising

Shantou weather history for previous 24 hours

 ConditionsComfort  
Time TempWeatherWind HumidityBarometerVisibility
2:00 AM
Fri, Mar 6
55 °FDrizzle. Fog.1 mph100%30.07 "Hg1 mi
1:00 AM55 °FDrizzle. Fog.1 mph100%30.07 "Hg1 mi
12:00 AM55 °FDrizzle. Fog.3 mph100%30.07 "Hg1 mi
11:00 PM
Thu, Mar 5
57 °FFog.3 mph94%30.09 "Hg2 mi
10:00 PM57 °FFog.1 mph94%30.07 "Hg2 mi
9:00 PM57 °FFog.1 mph94%30.07 "Hg2 mi
8:00 PM57 °FFog.3 mph94%30.04 "Hg2 mi
7:00 PM57 °FFog.1 mph94%30.04 "Hg3 mi
6:00 PM57 °FFog.1 mph94%30.04 "Hg2 mi
5:00 PM57 °FFog.1 mph94%30.04 "Hg2 mi
4:00 PM57 °FFog.1 mph94%30.04 "Hg2 mi
3:00 PM57 °FFog.1 mph94%30.04 "Hg3 mi
2:00 PM57 °FFog.1 mph94%30.04 "Hg3 mi
1:00 PM57 °FFog.1 mph88%30.07 "Hg3 mi
12:00 PM57 °FMore clouds than sun.3 mph88%30.09 "Hg4 mi
11:00 AM55 °FFog.1 mph94%30.12 "Hg3 mi
10:00 AM55 °FMore clouds than sun.1 mph88%30.12 "HgN/A
9:00 AM55 °FMore clouds than sun.1 mph88%30.12 "HgN/A
8:00 AM55 °FMore clouds than sun.3 mph88%30.12 "HgN/A
7:00 AM55 °FMore clouds than sun.3 mph88%30.09 "Hg5 mi
6:00 AM54 °FMostly cloudy.8 mph94%30.07 "Hg5 mi
5:00 AM55 °FMostly cloudy.6 mph88%30.04 "Hg5 mi
4:00 AM55 °FMostly cloudy.8 mph88%30.07 "Hg4 mi
3:00 AM55 °FMostly cloudy.3 mph88%30.07 "Hg4 mi
Weather by CustomWeather, © 2015

See weather overviewHow to use our weather pages